Capitol Logistics 781


RCTP
Taiwan Taoyuan International Airport
Taipei, TW
RKSI
Incheon International Airport
Seoul, KR

Activity Log

Date Flight Route Aircraft Duration
10/17/2019 CPX781 PIANO1C PIANO L3 SALMI B576 SEL SEL1T B744 2h 04m

Route Details

Aircraft Information
Primary: Boeing 747-400BCF
Backup: Boeing 777-200LRF
Route Data
Distance: 788nm
Sched. Duration: 2h 14m
Avg. Duration: 2h 04m (-11m)
Times Flown: 1
Recm'd Route: PIANO1C PIANO L3 SALMI B576 SEL SEL1T
Planned Altitude: 37,000ft
Origin Wx: RCTP 271830Z 04012KT 9999 FEW020 24/19 Q1014 NOSIG RMK A2997
Dest. Wx: RKSI 271830Z 32007KT 4000 BR FEW007 SCT030 BKN200 14/13 Q1022 NOSIG
Notes:

Financial History
Total Freight: 123,630lbs
Average Load: 123,630lbs/flt
Fuel Used: 52,282lbs
Avg. Fuel Used: 52,282lbs/flt
Fuel Expense: $56,987
Avg. Fuel Expense: $56,987
Avg. Fuel Cost: $1.09/lbs
Total Gross Income: $435,178
Pilot Pay: $229
Total Expenses: $47,051
Total Revenue: $330,604
Average Revenue: $435,177.59